Bookmark and Share
Track history (hours):
 

Olympic Champion

Last reported at 2014-Apr-18 19:32 UTC. Time now 2014-Apr-19 12:15 UTC.
Position N 37°34' E 023°44'.

Length 204 m; draft 6.4 m.

Type: Passenger vessel. MMSI: 237280000.

NotesDate/timePositionNaut miles runAvg speedWind from/ knotsBaromVisibWave heightAir tempDewpointWater temp
2014-Apr-18 19:32N 37°34' E 023°44'1818.5
2014-Apr-18 18:33N 37°52' E 023°37'5 2.2
2014-Apr-18 16:07N 37°57' E 023°38'0 0.0
2014-Apr-18 15:29N 37°57' E 023°38'0 0.0
2014-Apr-18 14:33N 37°57' E 023°38'0 0.0
2014-Apr-18 13:33N 37°57' E 023°38'0 0.0
2014-Apr-18 11:07N 37°57' E 023°38'1 0.2
2014-Apr-18 02:32N 37°56' E 023°37'1818.1
2014-Apr-18 01:33N 37°39' E 023°44'6118.2
2014-Apr-17 22:14N 36°40' E 023°59'2118.6
2014-Apr-17 21:05N 36°19' E 024°04'22 1.1
2014-Apr-17 01:28N 35°57' E 024°08'2017.5
2014-Apr-17 00:19N 36°17' E 024°04'1617.3
2014-Apr-16 23:22N 36°33' E 024°01'1517.8
2014-Apr-16 22:31N 36°48' E 023°58'5318.1
2014-Apr-16 19:33N 37°40' E 023°42'1716.6
2014-Apr-16 18:33N 37°56' E 023°38'1 0.7
2014-Apr-16 17:33N 37°57' E 023°38'0 0.0
2014-Apr-16 16:33N 37°57' E 023°38'0 0.0
2014-Apr-16 15:33N 37°57' E 023°38'0 0.0
2014-Apr-16 14:33N 37°57' E 023°38'0 0.0
2014-Apr-16 13:33N 37°57' E 023°38'0 0.0
2014-Apr-16 12:33N 37°57' E 023°38'0 0.0
2014-Apr-16 11:33N 37°57' E 023°38'0 0.0
2014-Apr-16 10:33N 37°57' E 023°38'0 0.0
2014-Apr-16 09:34N 37°57' E 023°38'0 0.0
2014-Apr-16 08:33N 37°57' E 023°38'0 0.0
2014-Apr-16 07:33N 37°57' E 023°38'0 0.0
2014-Apr-16 06:31N 37°57' E 023°38'0 0.0
2014-Apr-16 05:33N 37°57' E 023°38'0 0.0
2014-Apr-16 04:33N 37°57' E 023°38'0 0.0
2014-Apr-16 03:33N 37°57' E 023°38'3 3.5
2014-Apr-16 02:33N 37°53' E 023°38'5417.9
2014-Apr-15 23:33N 37°01' E 023°55'2118.3
2014-Apr-15 22:25N 36°41' E 023°59'1618.8
2014-Apr-15 21:33N 36°24' E 024°02'1919.1
2014-Apr-15 20:33N 36°06' E 024°07'1919.0
2014-Apr-15 19:33N 35°47' E 024°10'1817.8
2014-Apr-15 18:33N 35°29' E 024°11'74 3.5
2014-Apr-14 21:34N 36°43' E 024°00'1918.4
2014-Apr-14 20:31N 37°02' E 023°57'1818.5
2014-Apr-14 19:31N 37°20' E 023°51'1818.3
2014-Apr-14 18:32N 37°37' E 023°43'1818.1
2014-Apr-14 17:34N 37°53' E 023°37'4 3.4
2014-Apr-14 16:30N 37°57' E 023°38'73 4.1
2014-Apr-13 22:33N 36°46' E 023°58'2219.1
2014-Apr-13 21:22N 36°24' E 024°03'5518.6
2014-Apr-13 18:26N 35°30' E 024°11'75 3.7
2014-Apr-12 22:27N 36°44' E 023°59'5718.7
2014-Apr-12 19:25N 37°39' E 023°43'1618.3
2014-Apr-12 18:33N 37°54' E 023°37'3 1.0
2014-Apr-12 15:31N 37°57' E 023°38'0 0.0
2014-Apr-12 13:19N 37°57' E 023°38'0 0.0
2014-Apr-12 12:20N 37°57' E 023°38'0 0.0
2014-Apr-12 11:28N 37°57' E 023°38'0 0.0
2014-Apr-12 10:20N 37°57' E 023°38'0 0.0
2014-Apr-12 09:20N 37°57' E 023°38'0 0.0
2014-Apr-12 08:15N 37°57' E 023°38'3 0.5
2014-Apr-12 02:33N 37°54' E 023°38'7618.0
2014-Apr-11 22:19N 36°40' E 023°59'1518.2
2014-Apr-11 21:30N 36°25' E 024°02'2218.4
2014-Apr-11 20:18N 36°03' E 024°07'42 1.9
2014-Apr-10 22:21N 36°44' E 023°58'5318.9
2014-Apr-10 19:33N 37°36' E 023°43'1918.7
2014-Apr-10 18:33N 37°53' E 023°37'4 0.4
2014-Apr-10 10:32N 37°57' E 023°38'0 0.0
2014-Apr-10 05:11N 37°57' E 023°38'0 0.0
2014-Apr-10 04:08N 37°57' E 023°38'0 0.0
2014-Apr-10 03:16N 37°57' E 023°38'2 2.0
2014-Apr-10 02:26N 37°56' E 023°37'1617.9
2014-Apr-10 01:33N 37°41' E 023°46'7418.4
2014-Apr-09 21:33N 36°29' E 024°02'1919.4
2014-Apr-09 20:33N 36°10' E 024°06'22 1.1
2014-Apr-09 01:33N 35°48' E 024°11'3718.3
2014-Apr-08 23:30N 36°25' E 024°01'1718.2
2014-Apr-08 22:33N 36°42' E 023°58'1818.4
2014-Apr-08 21:33N 37°00' E 023°54'  

Dump ship's entire track history

sailing weather and tide predictions

Olympic Champion — SYWD — position and weather